Flag for Egypt Weather past 2 weeks in Al Jizah, Egypt

Now
88 °F

Scattered clouds.


Feels Like: 87 °F
Forecast: 70 / 90 °F
Wind: 10 mph from North

Location: Cairo Airport

Current Time: Sep 20, 2014 at 8:05:36 PM

Latest Report: Sep 20, 2014 at 4:30 PM


Visibility: N/A

Pressure: 29.92 "Hg

Humidity: 35%

Dew point: 57 °F

Location of Al JizahLocation

Historic Weather in Al Jizah — Graph

°F

Al Jizah temperature yesterday

Maximum temperature yesterday: 90 °F (at 2:00 PM)
Minimum temperature yesterday: 73 °F (at 7:00 AM)
Average temperature yesterday: 81 °F

Past Weeks' High & Low Weather Summary

 TemperatureHumidityPressure
High102 °F (Sep 16, 4:00 PM)78% (Sep 9, 7:00 AM)30.04 "Hg (Sep 9, 7:00 AM)
Low73 °F (Sep 13, 6:30 AM)14% (Sep 16, 3:00 PM)29.74 "Hg (Sep 5, 6:00 PM)
Average83 °F53%29.90 "Hg
* Reported Sep 5 4:00 PM — Sep 20 4:00 PM, Al Jizah, Weather by CustomWeather, © 2014

Note: Actual official high and low records may vary slightly from our data, if they occured in-between our weather recording intervals... More about our weather records

Advertising

Al Jizah weather history for previous 24 hours

 ConditionsComfort  
Time TempWeatherWind HumidityBarometerVisibility
4:00 PM
Sep 20
88 °FScattered clouds.12 mph35%29.92 "HgN/A
3:30 PM86 °FScattered clouds.8 mph38%29.92 "HgN/A
3:00 PM88 °FScattered clouds.9 mph35%29.92 "HgN/A
2:30 PM86 °FScattered clouds.14 mph38%29.95 "HgN/A
2:00 PM86 °FScattered clouds.9 mph40%29.95 "HgN/A
1:30 PM86 °FScattered clouds.14 mph43%29.95 "HgN/A
1:00 PM84 °FScattered clouds.12 mph43%29.98 "HgN/A
12:30 PM84 °FScattered clouds.6 mph48%29.98 "HgN/A
12:00 PM82 °FScattered clouds.8 mph51%29.98 "HgN/A
11:30 AM81 °FPartly sunny.12 mph54%30.01 "HgN/A
11:00 AM81 °FScattered clouds.6 mph54%30.01 "HgN/A
10:30 AM79 °FPassing clouds.8 mph58%30.01 "HgN/A
10:00 AM79 °FPassing clouds.8 mph61%30.01 "HgN/A
9:30 AM79 °FPassing clouds.8 mph58%30.01 "HgN/A
9:00 AM77 °FPassing clouds.5 mph61%29.98 "Hg4 mi
8:30 AM75 °FClear.6 mph65%30.01 "Hg4 mi
8:00 AM75 °FClear.No wind65%29.98 "Hg4 mi
7:30 AM73 °FClear.No wind69%29.98 "Hg4 mi
7:00 AM73 °FClear.No wind69%29.98 "Hg4 mi
6:30 AM73 °FClear.5 mph69%29.98 "Hg4 mi
6:00 AM73 °FClear.No wind69%29.98 "Hg4 mi
5:30 AM73 °FClear.No wind69%29.98 "Hg10 mi
5:00 AM73 °FClear.No wind69%29.98 "Hg10 mi
4:00 AM73 °FClear.5 mph69%29.98 "Hg10 mi
3:30 AM73 °FClear.7 mph69%29.98 "Hg10 mi
3:00 AM75 °FClear.2 mph65%29.98 "Hg10 mi
2:30 AM75 °FClear.7 mph65%29.98 "Hg10 mi
2:00 AM75 °FClear.No wind65%29.98 "Hg10 mi
1:30 AM75 °FClear.7 mph65%30.01 "Hg10 mi
1:00 AM75 °FClear.7 mph65%30.01 "Hg10 mi
12:30 AM77 °FClear.10 mph61%30.01 "Hg10 mi
12:00 AM77 °FClear.10 mph61%30.01 "Hg10 mi
11:30 PM
Sep 19
77 °FClear.7 mph57%30.04 "Hg10 mi
11:00 PM77 °FClear.7 mph57%30.04 "Hg10 mi
10:30 PM79 °FClear.9 mph54%30.04 "Hg10 mi
10:00 PM79 °FClear.9 mph54%30.01 "Hg10 mi
9:30 PM81 °FClear.10 mph48%30.01 "Hg10 mi
9:00 PM81 °FClear.10 mph48%30.01 "Hg10 mi
8:30 PM82 °FClear.10 mph45%29.98 "Hg10 mi
8:00 PM82 °FClear.10 mph45%29.98 "Hg10 mi
Weather by CustomWeather, © 2014

See weather overviewHow to use our weather pages